This demonstration page uses our WeatherBlox Daily Observations layout. Learn more.

Left ArrowRight Arrow

Hourly Observations for March 29, 2019

Temp ( °F °C ) Dew Point ( °F °C ) Humidity (%) Winds ( mph kmh ) Pressure ( in mb ) Visibility ( mi km ) Precip ( " mm )
12:57 am 00:57 Cloudy 43 6.1 34 1.1 71 71 NE 20 31 30.15 1021 10 16 0.00 0.00
1:57 am 01:57 Cloudy 42 5.6 34 1.1 73 73 NE 14 22 30.17 1022 10 16 0.00 0.00
2:57 am 02:57 Cloudy 41 5 34 1.1 76 76 ENE 15 24 30.15 1021 10 16 0.00 0.00
3:57 am 03:57 Cloudy 41 5 34 1.1 76 76 NE 12 19 30.16 1022 10 16 0.00 0.00
4:57 am 04:57 Cloudy 40 4.4 34 1.1 79 79 NE 20 31 30.12 1020 10 16 0.00 0.00
5:54 am 05:54 Cloudy 39 4 34 1 81 81 NE 18 30 30.16 1021 10 16 0.00 0.00
5:57 am 05:57 Cloudy 39 3.9 34 1.1 82 82 NE 17 28 30.11 1020 10 16 0.00 0.00
6:21 am 06:21 Cloudy 37 3 34 1 87 87 ENE 21 33 30.12 1020 10 16 0.00 0.00
6:57 am 06:57 Cloudy 38 3.3 34 1.1 86 86 NE 18 30 30.09 1019 10 16 0.00 0.00
7:08 am 07:08 Cloudy 37 3 34 1 87 87 ENE 20 31 30.12 1020 10 16 0.00 0.00
7:57 am 07:57 Cloudy 37 2.8 34 1.1 89 89 NE 16 26 30.10 1019 10 16 0.00 0.00
8:48 am 08:48 Cloudy with Light Snow 36 2 30 -1 81 81 ENE 17 28 30.15 1021 10 16 0.00 0.03
8:57 am 08:57 Cloudy with Light Snow 35 1.7 32 0 89 89 NNE 15 24 30.12 1020 6 10 0.02 0.51
9:57 am 09:57 Cloudy with Light Snow 35 1.7 32 0 89 89 NE 13 20 30.13 1020 8 13 0.02 0.51
10:41 am 10:41 Cloudy with Light Rain 34 1 32 0 93 93 NNE 15 24 30.18 1022 10 16 0.00 0.00
10:57 am 10:57 Cloudy with Light Rain 34 1.1 31 -0.6 89 89 NNE 15 24 30.14 1021 10 16 0.02 0.51
11:57 am 11:57 Cloudy 34 1.1 31 -0.6 89 89 NE 21 33 30.11 1020 10 16 0.00 0.03
12:19 pm 12:19 Cloudy 34 1 30 -1 87 87 NNE 20 31 30.16 1021 10 16 0.00 0.00
12:57 pm 12:57 Cloudy with Light Rain 34 1.1 32 0 92 92 NE 17 28 30.09 1019 10 16 0.00 0.03
1:57 pm 13:57 Cloudy 34 1.1 32 0 92 92 NE 18 30 30.08 1019 10 16 0.00 0.03
2:57 pm 14:57 Cloudy 36 2.2 33 0.6 89 89 NE 18 30 30.04 1017 10 16 0.00 0.00
3:57 pm 15:57 Cloudy 36 2.2 32 0 86 86 NNE 23 37 30.01 1016 10 16 0.00 0.00
4:57 pm 16:57 Cloudy with Light Rain 35 1.7 33 0.6 93 93 N 21 33 30.01 1016 3 5 0.00 0.03
5:16 pm 17:16 Cloudy with Light Wintry Mix 34 1 32 0 93 93 N 23 37 30.07 1018 4 6 0.00 0.03
5:57 pm 17:57 Cloudy with Light Wintry Mix 32 0 31 -0.6 96 96 NNE 17 28 30.05 1018 6 10 0.00 0.03
6:45 pm 18:45 Cloudy with Light Wintry Mix 32 0 30 -1 93 93 NNE 16 26 30.12 1020 5 8 0.00 0.03
6:57 pm 18:57 Cloudy with Light Wintry Mix 32 0 30 -1.1 92 92 N 17 28 30.08 1019 4 6 0.00 0.03
7:11 pm 19:11 Cloudy with Light Wintry Mix 32 0 30 -1 93 93 N 17 28 30.14 1021 5 8 0.00 0.03
7:22 pm 19:22 Cloudy with Light Wintry Mix 30 -1 30 -1 100 100 N 20 31 30.15 1021 4 6 0.00 0.00
7:44 pm 19:44 Cloudy with Light Wintry Mix 30 -1 30 -1 100 100 N 17 28 30.15 1021 4 6 0.00 0.00
7:57 pm 19:57 Cloudy with Light Wintry Mix 31 -0.6 30 -1.1 96 96 N 15 24 30.11 1020 8 13 0.00 0.03
8:16 pm 20:16 Cloudy with Light Snow 30 -1 30 -1 100 100 NNW 9 15 30.18 1022 6 10 0.00 0.00
8:48 pm 20:48 Cloudy with Light Snow 30 -1 30 -1 100 100 NNW 15 24 30.18 1022 3 5 0.01 0.25
8:57 pm 20:57 Cloudy with Light Snow 31 -0.6 30 -1.1 96 96 N 16 26 30.13 1020 3 4 0.01 0.25
9:13 pm 21:13 Cloudy with Light Snow 30 -1 30 -1 100 100 N 17 28 30.19 1022 3 5 0.00 0.03
9:33 pm 21:33 Windy with Snow Likely 30 -1 30 -1 100 100 N 25 41 30.19 1022 7 11 0.00 0.00
9:49 pm 21:49 Windy with Snow Likely 30 -1 30 -1 100 100 N 20 31 30.21 1023 3 5 0.00 0.03
9:53 pm 21:53 Windy with Snow Likely 30 -1 30 -1 100 100 N 21 33 30.22 1023 3 4 0.00 0.00
9:57 pm 21:57 Windy with Snow Likely 31 -0.6 30 -1.1 96 96 N 20 31 30.16 1022 3 4 0.00 0.03
10:08 pm 22:08 Windy with Snow Likely 30 -1 30 -1 100 100 N 22 35 30.22 1023 4 6 0.00 0.00
10:33 pm 22:33 Windy with Snow Likely 30 -1 30 -1 100 100 N 23 37 30.23 1024 2 3 0.00 0.00
10:43 pm 22:43 Windy with Snow Likely 30 -1 28 -2 93 93 N 23 37 30.23 1024 2 2 0.00 0.00
10:57 pm 22:57 Cloudy with Light Snow 30 -1.1 29 -1.7 96 96 N 18 30 30.18 1022 2 3 0.00 0.03
11:07 pm 23:07 Windy with Snow Likely 30 -1 28 -2 93 93 N 20 31 30.23 1024 3 4 0.00 0.03
11:23 pm 23:23 Windy with Snow Likely 30 -1 28 -2 93 93 N 20 31 30.24 1024 3 5 0.00 0.03
11:53 pm 23:53 Cloudy with Light Snow 30 -1 30 -1 100 100 N 17 28 30.23 1024 6 10 0.00 0.00
11:57 pm 23:57 Windy with Snow Likely 31 -0.6 30 -1.1 96 96 N 21 33 30.17 1022 6 10 0.01 0.25

Powered by AerisWeather